Regional Weather Roundup
Issued by NWS Green Bay, WI

Home | Current Version | Previous Version | Graphics & Text | Print | Product List | Glossary Off
Versions: 1 2 3 4 5 6 7 8 9 10 11 12 13 14 15 16 17 18 19 20 21 22 23 24 25 26 27 28 29 30 31 32 33 34 35 36 37 38 39 40 41 42 43 44 45 46 47 48 49 50

000
ASUS43 KGRB 031511
RWRGRB

NORTH-CENTRAL AND NORTHEAST WISCONSIN REGIONAL WEATHER ROUNDUP
NATIONAL WEATHER SERVICE GREEN BAY WI
1000 AM CDT MON AUG 03 2015

WIZ005-009-010>012-018-019-031600-
NORTH CENTRAL WISCONSIN

CITY           SKY/WX    TMP DP  RH WIND       PRES   REMARKS
IRONWOOD       MOSUNNY   63  52  67 W16G23    29.77R
MANITOWISH WTR CLOUDY    62  51  67 W10       29.80S
ARBOR VITAE    CLOUDY    62  51  66 NW8       29.80S
EAGLE RIVER    MOSUNNY   66  48  51 NW13G18   29.79S
LAND O LAKES   CLOUDY    65  48  52 W9G17     29.79S
RHINELANDER    MOSUNNY   66  50  56 NW9G23    29.81F
PHILLIPS       PTSUNNY   62  51  66 W9        29.82S
ANTIGO         SUNNY     65  50  57 NW13G20   29.82S
TOMAHAWK       CLOUDY    64  50  60 W8        29.83S
MERRILL        NOT AVBL
$$

WIZ013-073-031600-
NORTHEAST WISCONSIN

CITY           SKY/WX    TMP DP  RH WIND       PRES   REMARKS
IRON MOUNTAIN  MOSUNNY   69  50  50 W12       29.74F
MARINETTE      CLOUDY    68  52  56 W5        29.76S
OCONTO         MOSUNNY   70  54  57 W7        29.78S
$$

WIZ017-030-035>037-045-031600-
CENTRAL WISCONSIN

CITY           SKY/WX    TMP DP  RH WIND       PRES   REMARKS
MEDFORD        CLOUDY    64  49  58 NW8       29.85R
WAUSAU         SUNNY     69  47  45 NW16      29.82S
MOSINEE        SUNNY     68  46  45 NW17      29.84F
MARSHFIELD     PTSUNNY   69  47  45 NW14      29.85S
WISC RAPIDS    SUNNY     71  46  40 NW13G23   29.86S
STEVENS POINT  PTSUNNY   67  46  47 W13G20    29.84F
WAUPACA        SUNNY     73  47  40 NW16      29.83S
SHAWANO        SUNNY     70  54  57 W9        29.80F
CLINTONVILLE   SUNNY     68  52  56 W9        29.81S
$$

WIZ038-039-048-051-031600-
FOX VALLEY

CITY           SKY/WX    TMP DP  RH WIND       PRES   REMARKS
NWS GREEN BAY  SUNNY     70  57  63 W9        29.80S
APPLETON       MOSUNNY   68  52  56 W10       29.82S
OSHKOSH        SUNNY     70  53  54 NW10      29.82S
FOND DU LAC    SUNNY     70  54  56 W10       29.83S
$$

WIZ022-050-052-031600-
EAST CENTRAL WISCONSIN

CITY           SKY/WX    TMP DP  RH WIND       PRES   REMARKS
STURGEON BAY   CLOUDY    66  52  59 W6        29.81S
MANITOWOC      SUNNY     71  52  50 MISG      29.80S
SHEBOYGAN      SUNNY     70  59  68 W9        29.81S
$$

LMZ563-521-522-541>543-031600-
LAKESHORE

STATION/POSITION TIME  TEMP    WIND        PRES    VSBY  WAVE
                       AIR SEA DIR/SP/G                  HT/PER
                 (UTC) (F)     (DEG/KT/KT) (MB)    (MI)  (FT/S)
SHEBOYGAN LKSHOR 1500   69     270/  9/ 11 1009.5R
KEWAUNEE LKSHORE 1400   66     280/  5/  8 1008.2R
ALGOMA MARINA    1412          330/  7/  9   N/A
NORTHPORT PIER   1400   66     310/ 10/ 13 1007.8R
N MID LAKE BUOY  1450   64 68  280/ 12/ 14 1007.1R         2/ 6
S GREEN BAY BUOY 1500   64 67  220/ 10/ 12 1010.1F
SISTER BAY LKSHO 1418   69     320/ 12/ 14   N/A
CHAMBERS ISLAND  1400   67     260/  4/  8 1008.1R
MENOMINEE LKSHOR 1400   67     290/  5/  9 1008.9R
$$


USA.gov is the U.S. government's official web portal to all federal, state and local government web resources and services.